McCook, NE

8:26 PM CST on December 08, 2019 (GMT -0600)
McCook Municipal

Weather History for KMCK - September, 2019

Change the Weather History Date:

Wednesday, September 18, 2019

  Actual Average Record
Temperature  
Mean Temperature 73 °F 63 °F  
Max Temperature 84 °F 79 °F 101 °F (2004)
Min Temperature 62 °F 48 °F 32 °F (1912)
Cooling Degree Days 8    
Growing Degree Days 23 (Base 50)    
Moisture  
Dew Point 52 °F    
Average Humidity 52    
Maximum Humidity 80    
Minimum Humidity 25    
Precipitation  
Precipitation 0.00 in 0.04 in 1.07 in (1955)
Month to date precipitation 0.51 0.87  
Year to date precipitation 17.84 18.58  
Sea Level Pressure  
Sea Level Pressure 29.86 in    
Wind  
Wind Speed 11 mph ()    
Max Wind Speed 20 mph    
Max Gust Speed 34 mph    
Visibility 10.0 miles    
Events      
T = Trace of Precipitation, MM = Missing Value Source: Averaged Metar Reports

Daily Weather History Graph

Daily Weather History Graph

Search for Another Location

Airport or City:

Astronomy

Sep. 18, 2019 Rise Set
Actual Time 7:25 AM CDT 7:46 PM CDT
Civil Twilight 6:58 AM CDT 8:13 PM CDT
Nautical Twilight 6:26 AM CDT 8:45 PM CDT
Astronomical Twilight 5:54 AM CDT 9:18 PM CDT
Moon 10:21 PM CDT (9/18) 11:31 AM CDT (9/18)
Length of Visible Light 13h 14m
Length of Day
12h 20m
Waning Gibbous, 82% of the Moon is Illuminated
Sep 18
Waning Gibbous
Sep 21
Last Quarter
Sep 28
New
Oct 5
First Quarter
Oct 13
Full

Hourly Weather History & Observations

Time (CDT) Temp. Heat Index Dew Point Humidity Pressure Visibility Wind Dir Wind Speed Gust Speed Precip Events Conditions
12:53 AM 77.0 °F - 57.9 °F 52% 29.73 in 10.0 mi South 18.4 mph 28.8 mph N/A   Clear
1:53 AM 75.9 °F - 57.9 °F 54% 29.73 in 10.0 mi South 19.6 mph 34.5 mph N/A   Clear
2:53 AM 75.9 °F - 59.0 °F 56% 29.73 in 10.0 mi SSW 16.1 mph 26.5 mph N/A   Clear
3:20 AM 75.0 °F - 59.0 °F 57% 29.85 in 10.0 mi WSW 8.1 mph 20.7 mph N/A   Clear
3:53 AM 73.9 °F - 59.0 °F 59% 29.76 in 10.0 mi SW 8.1 mph - N/A   Clear
4:53 AM 69.1 °F - 57.9 °F 68% 29.78 in 10.0 mi Calm Calm - N/A   Clear
5:53 AM 64.0 °F - 57.9 °F 80% 29.81 in 10.0 mi East 5.8 mph - N/A   Clear
6:53 AM 64.0 °F - 57.9 °F 80% 29.84 in 10.0 mi North 15.0 mph - N/A   Clear
7:53 AM 64.9 °F - 48.0 °F 54% 29.88 in 10.0 mi NNE 12.7 mph - N/A   Clear
8:53 AM 68.0 °F - 41.0 °F 37% 29.90 in 10.0 mi North 16.1 mph - N/A   Clear
9:53 AM 71.1 °F - 41.0 °F 34% 29.91 in 10.0 mi NNE 19.6 mph - N/A   Clear
10:53 AM 75.0 °F - 41.0 °F 29% 29.93 in 10.0 mi NNE 17.3 mph - N/A   Clear
12:53 PM 79.0 °F - 43.0 °F 28% 29.93 in 10.0 mi NE 16.1 mph 25.3 mph N/A   Clear
1:53 PM 82.0 °F - 44.1 °F 26% 29.91 in 10.0 mi NE 17.3 mph - N/A   Clear
2:53 PM 82.9 °F - 44.1 °F 25% 29.90 in 10.0 mi NE 15.0 mph - N/A   Clear
3:53 PM 82.9 °F - 46.0 °F 27% 29.89 in 10.0 mi NE 11.5 mph - N/A   Clear
4:53 PM 82.9 °F - 52.0 °F 34% 29.89 in 10.0 mi East 10.4 mph - N/A   Clear
5:53 PM 82.0 °F 81.2 °F 53.1 °F 37% 29.89 in 10.0 mi ENE 6.9 mph - N/A   Clear
6:53 PM 80.1 °F 80.4 °F 57.0 °F 45% 29.88 in 10.0 mi ENE 6.9 mph - N/A   Clear
7:53 PM 72.0 °F - 57.9 °F 61% 29.89 in 10.0 mi NNE 6.9 mph - N/A   Clear
8:53 PM 68.0 °F - 57.0 °F 68% 29.91 in 10.0 mi NE 6.9 mph - N/A   Clear
9:53 PM 64.9 °F - 55.9 °F 73% 29.92 in 10.0 mi ENE 4.6 mph - N/A   Clear
10:53 PM 64.0 °F - 55.9 °F 75% 29.92 in 10.0 mi ENE 6.9 mph - N/A   Clear
11:53 PM 62.1 °F - 55.9 °F 80% 29.92 in 10.0 mi North 5.8 mph - N/A   Clear